Location: Staunton
(38.1490°N, 79.0720°W)
Time: 11:55:52
(UTC-04:00)

ISS - Pass Details

Date: 01 June 2020
Orbit: 417 x 420 km, 51.6° (Epoch: 26 May)

Event Time Altitude Azimuth Distance (km) Brightness Sun altitude
Rises 21:48:30 0° 312° (NW) 2,363 2.2 -12.7°
Reaches altitude 10° 21:50:38 10° 316° (NW) 1,497 0.5 -13.0°
Maximum altitude 21:53:57 58° 37° (NE) 490 -3.4 -13.5°
Enters shadow 21:55:42 25° 109° (ESE) 896 -2.6 -13.7°
